Weather History for Homerville, GA

Change the Weather History Date:

Monday, January 6, 2014

  Actual Average Record
Temperature  
Mean Temperature 49 °F -  
Max Temperature 66 °F 63 °F 76 °F (1993)
Min Temperature 30 °F 38 °F 24 °F (1981)
Degree Days  
Heating Degree Days 16    
Moisture  
Dew Point 38 °F    
Average Humidity 74    
Maximum Humidity 100    
Minimum Humidity 44    
Precipitation  
Precipitation 0.00 in - - ()
Sea Level Pressure  
Sea Level Pressure 30.10 in    
Wind  
Wind Speed 12 mph (WNW)    
Max Wind Speed 29 mph    
Max Gust Speed 40 mph    
Visibility 10 miles    
Events Rain    
Averages and records for this station are not official NWS values.
T = Trace of Precipitation, MM = Missing Value Source: NWS Daily Summary

Daily Weather History Graph

Daily Weather History Graph

Search for Another Location

Airport:

Trip Planner

Search our weather history database for the weather conditions in past years. The results will help you decide how hot, cold, wet, or windy it might be!

Date:

Astronomy

Jan. 06, 2014 Rise Set
Actual Time 7:30 AM EST 5:43 PM EST
Civil Twilight 7:03 AM EST 6:10 PM EST
Nautical Twilight 6:33 AM EST 6:40 PM EST
Astronomical Twilight 6:04 AM EST 7:09 PM EST
Moon 11:09 AM EST (1/6) 11:48 PM EST (1/6)
Length of Visible Light 11h 06m
Length of Day
10h 13m
Waxing Crescent, 34% of the Moon is Illuminated
Jan 6
Waxing Crescent
Jan 7
First Quarter
Jan 15
Full
Jan 24
Last Quarter
Jan 30
New

Hourly Weather History & Observations

Time (EST) Temp. Windchill Dew Point Humidity Pressure Visibility Wind Dir Wind Speed Gust Speed Precip Events Conditions
12:15 AM 59.0 °F - 59.0 °F 100% 29.90 in 7.0 mi SW 4.6 mph - N/A   Mostly Cloudy
12:35 AM 60.8 °F - 60.8 °F 100% 29.89 in 10.0 mi SW 6.9 mph - N/A   Overcast
12:55 AM 62.6 °F - 62.6 °F 100% 29.89 in 7.0 mi WSW 10.4 mph - N/A   Overcast
1:15 AM 62.6 °F - 62.6 °F 100% 29.88 in 7.0 mi WSW 9.2 mph - N/A   Overcast
1:35 AM 62.6 °F - 62.6 °F 100% 29.88 in 7.0 mi WSW 6.9 mph - N/A   Overcast
1:55 AM 62.6 °F - 62.6 °F 100% 29.87 in 7.0 mi SW 8.1 mph - N/A   Overcast
2:15 AM 62.6 °F - 62.6 °F 100% 29.87 in 7.0 mi SW 6.9 mph - N/A   Overcast
2:35 AM 64.4 °F - 64.4 °F 100% 29.87 in 10.0 mi SW 8.1 mph - N/A   Overcast
2:55 AM 64.4 °F - 64.4 °F 100% 29.87 in 10.0 mi SSW 8.1 mph - N/A   Mostly Cloudy
3:15 AM 64.4 °F - 62.6 °F 94% 29.86 in 10.0 mi SSW 8.1 mph - N/A   Scattered Clouds
3:35 AM 64.4 °F - 64.4 °F 100% 29.86 in 10.0 mi SW 6.9 mph - N/A   Mostly Cloudy
3:55 AM 64.4 °F - 64.4 °F 100% 29.86 in 10.0 mi SW 9.2 mph - N/A   Overcast
4:15 AM 64.4 °F - 64.4 °F 100% 29.86 in 10.0 mi SW 8.1 mph - N/A   Mostly Cloudy
4:35 AM 64.4 °F - 64.4 °F 100% 29.86 in 10.0 mi SW 8.1 mph - N/A   Mostly Cloudy
4:55 AM 64.4 °F - 64.4 °F 100% 29.85 in 10.0 mi SW 9.2 mph - N/A   Mostly Cloudy
5:15 AM 64.4 °F - 64.4 °F 100% 29.85 in 10.0 mi SW 5.8 mph - N/A   Overcast
5:35 AM 66.2 °F - 64.4 °F 94% 29.84 in 10.0 mi SSW 6.9 mph 17.3 mph N/A   Overcast
5:55 AM 66.2 °F - 64.4 °F 94% 29.84 in 10.0 mi SSW 11.5 mph - N/A   Overcast
6:15 AM 64.4 °F - 60.8 °F 88% 29.87 in 7.0 mi NW 28.8 mph 40.3 mph N/A Rain Heavy Rain
6:35 AM 53.6 °F - 53.6 °F 100% 29.91 in 7.0 mi WNW 19.6 mph 23.0 mph N/A Rain Light Rain
6:55 AM 51.8 °F - 51.8 °F 100% 29.92 in 10.0 mi NW 21.9 mph 26.5 mph N/A   Light Drizzle
7:15 AM 51.8 °F - 51.8 °F 100% 29.95 in 10.0 mi NW 17.3 mph 24.2 mph N/A Rain Rain
7:35 AM 50.0 °F - 48.2 °F 94% 29.95 in 10.0 mi NW 19.6 mph 26.5 mph N/A   Overcast
7:55 AM 48.2 °F - 46.4 °F 93% 29.98 in 10.0 mi NW 15.0 mph 24.2 mph N/A   Overcast
8:15 AM 46.4 °F 40.7 °F 44.6 °F 93% 30.00 in 10.0 mi NW 12.7 mph 24.2 mph N/A   Overcast
8:35 AM 46.4 °F 39.5 °F 44.6 °F 93% 30.01 in 10.0 mi NW 17.3 mph 23.0 mph N/A   Overcast
8:55 AM 46.4 °F 38.7 °F 44.6 °F 93% 30.03 in 10.0 mi NW 20.7 mph 25.3 mph N/A   Overcast
9:15 AM 44.6 °F 35.9 °F 42.8 °F 93% 30.05 in 10.0 mi NW 23.0 mph 28.8 mph N/A   Overcast
9:35 AM 44.6 °F 36.4 °F 41.0 °F 87% 30.08 in 10.0 mi NW 20.7 mph 28.8 mph N/A   Overcast
9:55 AM 42.8 °F 34.0 °F 37.4 °F 81% 30.11 in 10.0 mi NW 20.7 mph 32.2 mph N/A   Overcast
10:15 AM 42.8 °F 32.9 °F 35.6 °F 76% 30.12 in 10.0 mi NW 26.5 mph 32.2 mph N/A   Mostly Cloudy
10:35 AM 42.8 °F 33.5 °F 35.6 °F 76% 30.14 in 10.0 mi NW 23.0 mph 27.6 mph N/A   Mostly Cloudy
10:55 AM 41.0 °F 31.9 °F 35.6 °F 81% 30.15 in 10.0 mi NW 19.6 mph 28.8 mph N/A   Mostly Cloudy
11:15 AM 39.2 °F 30.2 °F 33.8 °F 81% 30.16 in 10.0 mi WNW 17.3 mph 27.6 mph N/A   Overcast
11:35 AM 37.4 °F 27.2 °F 32.0 °F 81% 30.16 in 10.0 mi NW 19.6 mph - N/A   Overcast
11:55 AM 37.4 °F 26.9 °F 32.0 °F 81% 30.15 in 10.0 mi NW 20.7 mph 28.8 mph N/A   Overcast
12:15 PM 41.0 °F 33.1 °F 32.0 °F 70% 30.15 in 10.0 mi NW 15.0 mph 25.3 mph N/A   Mostly Cloudy
12:35 PM 42.8 °F 35.8 °F 32.0 °F 66% 30.14 in 10.0 mi NNW 13.8 mph 26.5 mph N/A   Clear
12:55 PM 42.8 °F 35.4 °F 32.0 °F 66% 30.14 in 10.0 mi NNW 15.0 mph 24.2 mph N/A   Clear
1:15 PM 42.8 °F 35.4 °F 30.2 °F 61% 30.14 in 10.0 mi NW 15.0 mph 21.9 mph N/A   Clear
1:35 PM 42.8 °F 35.1 °F 30.2 °F 61% 30.14 in 10.0 mi NW 16.1 mph 28.8 mph N/A   Clear
1:55 PM 42.8 °F 34.5 °F 30.2 °F 61% 30.15 in 10.0 mi NW 18.4 mph 25.3 mph N/A   Clear
2:15 PM 44.6 °F 37.8 °F 28.4 °F 53% 30.15 in 10.0 mi NNW 15.0 mph 25.3 mph N/A   Clear
2:35 PM 42.8 °F 34.3 °F 28.4 °F 57% 30.15 in 10.0 mi NW 19.6 mph 31.1 mph N/A   Clear
2:55 PM 42.8 °F 35.1 °F 28.4 °F 57% 30.16 in 10.0 mi NW 16.1 mph 20.7 mph N/A   Clear
3:15 PM 44.6 °F 37.4 °F 30.2 °F 57% 30.16 in 10.0 mi NW 16.1 mph 19.6 mph N/A   Clear
3:35 PM 42.8 °F 35.8 °F 28.4 °F 57% 30.17 in 10.0 mi WNW 13.8 mph 24.2 mph N/A   Clear
3:55 PM 42.8 °F 35.8 °F 28.4 °F 57% 30.17 in 10.0 mi NW 13.8 mph 19.6 mph N/A   Clear
4:15 PM 42.8 °F 35.1 °F 26.6 °F 53% 30.18 in 10.0 mi WNW 16.1 mph - N/A   Clear
4:35 PM 42.8 °F 34.5 °F 24.8 °F 49% 30.18 in 10.0 mi NW 18.4 mph 23.0 mph N/A   Clear
4:55 PM 42.8 °F 34.8 °F 26.6 °F 53% 30.18 in 10.0 mi NW 17.3 mph 24.2 mph N/A   Clear
5:15 PM 41.0 °F 32.2 °F 23.0 °F 49% 30.20 in 10.0 mi NW 18.4 mph 24.2 mph N/A   Clear
5:35 PM 41.0 °F 35.2 °F 23.0 °F 49% 30.20 in 10.0 mi NNW 9.2 mph - N/A   Clear
5:55 PM 39.2 °F 30.5 °F 26.6 °F 61% 30.22 in 10.0 mi NW 16.1 mph 19.6 mph N/A   Clear
6:15 PM 39.2 °F 31.2 °F 23.0 °F 52% 30.23 in 10.0 mi NW 13.8 mph - N/A   Clear
6:35 PM 39.2 °F 30.8 °F 23.0 °F 52% 30.24 in 10.0 mi NW 15.0 mph 25.3 mph N/A   Clear
6:55 PM 37.4 °F 28.5 °F 23.0 °F 56% 30.25 in 10.0 mi NW 15.0 mph - N/A   Clear
7:15 PM 37.4 °F 27.2 °F 23.0 °F 56% 30.26 in 10.0 mi NW 19.6 mph 25.3 mph N/A   Clear
7:35 PM 37.4 °F 27.5 °F 19.4 °F 48% 30.29 in 10.0 mi NW 18.4 mph 24.2 mph N/A   Clear
7:55 PM 35.6 °F 25.5 °F 17.6 °F 48% 30.30 in 10.0 mi NW 17.3 mph 23.0 mph N/A   Clear
8:15 PM 35.6 °F 24.8 °F 17.6 °F 48% 30.31 in 10.0 mi NW 19.6 mph 27.6 mph N/A   Clear
8:35 PM 35.6 °F 27.1 °F 19.4 °F 52% 30.33 in 10.0 mi NW 12.7 mph 20.7 mph N/A   Clear
8:55 PM 35.6 °F 27.5 °F 17.6 °F 48% 30.33 in 10.0 mi NW 11.5 mph 17.3 mph N/A   Clear
9:15 PM 33.8 °F 22.8 °F 17.6 °F 52% 30.35 in 10.0 mi NW 18.4 mph 28.8 mph N/A   Clear
9:35 PM 33.8 °F 23.2 °F 15.8 °F 48% 30.36 in 10.0 mi NW 17.3 mph - N/A   Clear
9:55 PM 33.8 °F 24.3 °F 15.8 °F 48% 30.38 in 10.0 mi NW 13.8 mph 19.6 mph N/A   Clear
10:15 PM 32.0 °F 21.2 °F 14.0 °F 48% 30.38 in 10.0 mi NW 16.1 mph 20.7 mph N/A   Clear
10:35 PM 32.0 °F 24.2 °F 17.6 °F 55% 30.40 in 10.0 mi NW 9.2 mph - N/A   Clear
10:55 PM 32.0 °F 21.2 °F 12.2 °F 44% 30.40 in 10.0 mi NW 16.1 mph 24.2 mph N/A   Clear
11:15 PM 32.0 °F 22.1 °F 14.0 °F 48% 30.41 in 10.0 mi NNW 13.8 mph 20.7 mph N/A   Clear
11:35 PM 32.0 °F 22.1 °F 14.0 °F 48% 30.41 in 10.0 mi NW 13.8 mph - N/A   Clear
11:55 PM 30.2 °F 20.8 °F 12.2 °F 47% 30.42 in 10.0 mi NNW 11.5 mph - N/A   Clear